This demonstration page uses our WeatherBlox Daily Observations layout. Learn more.

39.01783, -85.05884

Hourly Observations for November 22, 2019

Temp ( °F °C ) Dew Point ( °F °C ) Humidity (%) Winds ( mph kmh ) Pressure ( in mb ) Visibility ( mi km ) Precip ( " mm )
12:32 am 00:32 Cloudy 54 12.2 47 8.3 77 77 SW 8 13 29.94 1014 10 16.0934 0 0
12:52 am 00:52 Cloudy 54 12.2 47 8.3 77 77 SW 8 13 29.93 1014 10 16.0934 0 0
1:47 am 01:47 Cloudy with Light Drizzle 54 12 48 9 82 82 SW 12 19 29.94 1014 6 9.65604 0.001 0.001
2:19 am 02:19 Cloudy with Light Drizzle 52 11.1 49 9.4 89 89 WSW 9 15 29.96 1014 3 4.82802 0.001 0.001
2:34 am 02:34 Cloudy with Light Rain 52 11.1 49 9.4 89 89 WNW 14 22 29.96 1014 4 6.43736 0.001 0.001
2:52 am 02:52 Cloudy with Light Rain 51 10.6 48 8.9 89 89 WNW 12 19 29.95 1014 6 9.65604 0.01 0.254
3:33 am 03:33 Cloudy with Rain 48 8.9 45 7.2 89 89 WNW 8 13 29.96 1015 4 6.43736 0.04 1.016
3:52 am 03:52 Cloudy with Light Rain 48 8.9 45 7.2 89 89 NW 15 24 29.95 1014 8 12.87472 0.05 1.27
4:43 am 04:43 Cloudy with Rain 45 7.2 41 5 86 86 NW 13 20 30 1016 7 11.26538 0.04 1.016
4:52 am 04:52 Cloudy with Light Rain 44 6.7 41 5 89 89 NW 13 20 29.98 1015 7 11.26538 0.05 1.27
5:52 am 05:52 Cloudy with Rain 43 6.1 39 3.9 86 86 NW 15 24 30.02 1017 5 8.0467 0.11 2.794
6:37 am 06:37 Cloudy with Light Rain 42 5.6 39 3.9 89 89 NW 13 20 30.07 1018 4 6.43736 0.04 1.016
6:52 am 06:52 Cloudy with Light Rain 42 5.6 39 3.9 89 89 NW 8 13 30.02 1017 4 6.43736 0.04 1.016
7:52 am 07:52 Cloudy 42 5.6 38 3.3 85 85 NNW 13 20 30.06 1018 8 12.87472 0.02 0.508
8:44 am 08:44 Cloudy 41 5 37 2.8 86 86 NNW 12 19 30.13 1020 9 14.48406 0 0
8:52 am 08:52 Cloudy 41 5 37 2.8 86 86 NNW 10 17 30.1 1019 10 16.0934 0 0
9:52 am 09:52 Cloudy 41 5 36 2.2 82 82 N 14 22 30.11 1020 10 16.0934 0 0
10:52 am 10:52 Cloudy 41 5 34 1.1 76 76 N 15 24 30.12 1020 10 16.0934 0 0
11:52 am 11:52 Cloudy 41 5 34 1.1 76 76 NNW 12 19 30.11 1020 10 16.0934 0 0
12:35 pm 12:35 Mostly Cloudy 42 5.6 33 0.6 71 71 N 12 19 30.13 1020 10 16.0934 0 0
12:52 pm 12:52 Mostly Cloudy 43 6.1 32 0 65 65 N 9 15 30.1 1019 10 16.0934 0 0
1:52 pm 13:52 Mostly Cloudy 45 7.2 32 0 61 61 Calm 30.1 1019 10 16.0934 0 0
2:52 pm 14:52 Mostly Cloudy 45 7.2 33 0.6 63 63 NW 8 13 30.08 1019 10 16.0934 0 0
3:52 pm 15:52 Mostly Cloudy 45 7.2 32 0 61 61 N 8 13 30.09 1019 10 16.0934 0 0
4:52 pm 16:52 Partly Cloudy 44 6.7 31 -0.6 60 60 NNW 5 7 30.11 1020 10 16.0934 0 0
5:52 pm 17:52 Partly Cloudy 39 3.9 30 -1.1 70 70 N 7 11 30.11 1020 10 16.0934 0 0
6:52 pm 18:52 Partly Cloudy 38 3.3 29 -1.7 70 70 NNE 6 9 30.12 1020 10 16.0934 0 0
7:52 pm 19:52 Partly Cloudy 38 3.3 29 -1.7 70 70 NE 7 11 30.12 1020 10 16.0934 0 0
8:52 pm 20:52 Mostly Cloudy 37 2.8 29 -1.7 73 73 E 5 7 30.11 1020 10 16.0934 0 0
9:52 pm 21:52 Mostly Cloudy 36 2.2 28 -2.2 73 73 E 6 9 30.11 1020 10 16.0934 0 0
10:52 pm 22:52 Cloudy 37 2.8 29 -1.7 73 73 NE 6 9 30.08 1019 10 16.0934 0 0
11:52 pm 23:52 Cloudy 35 1.7 29 -1.7 78 78 E 5 7 30.07 1018 10 16.0934 0 0

Powered by AerisWeather